• In Deutschland
  • Länderverzeichnis
  • Für 7 Tage
  • Wassertemperatur
  • Satellitenkarten
  • Wetterkarte
  • Widgets
  • user-avatar
    Anmelden

    Stündliche Wetter Nachiczewan

    Heute, 21 Oktober, Sonntag

    Zeit Temperatur Niederschläge Wind Luftdruck Luftfeuchtigkeit
    00:00 +19°C° 0 mm 1 m/S 688 mmHg 43%
    01:00 +18°C° 0 mm 1 m/S 688 mmHg 45%
    02:00 +18°C° 0 mm 1 m/S 687 mmHg 46%
    03:00 +16°C° 0 mm 1 m/S 687 mmHg 48%
    04:00 +16°C° 0 mm 1 m/S 687 mmHg 49%
    05:00 +16°C° 0 mm 1 m/S 687 mmHg 50%
    06:00 +15°C° 0 mm 1 m/S 687 mmHg 51%
    07:00 +18°C° 0 mm 1 m/S 688 mmHg 47%
    08:00 +19°C° 0 mm 1 m/S 688 mmHg 42%
    09:00 +21°C° 0 mm 1 m/S 688 mmHg 38%
    10:00 +22°C° 0 mm 1 m/S 688 mmHg 36%
    11:00 +23°C° 0 mm 1 m/S 688 mmHg 35%
    12:00 +24°C° 0 mm 2 m/S 688 mmHg 33%
    13:00 +24°C° 0 mm 2 m/S 688 mmHg 33%
    14:00 +24°C° 0 mm 2 m/S 688 mmHg 33%
    15:00 +24°C° 0 mm 2 m/S 688 mmHg 33%
    16:00 +23°C° 0 mm 2 m/S 688 mmHg 35%
    17:00 +22°C° 0 mm 1 m/S 688 mmHg 37%
    18:00 +22°C° 0 mm 1 m/S 688 mmHg 39%
    19:00 +21°C° 0 mm 1 m/S 688 mmHg 41%
    20:00 +21°C° 0 mm 1 m/S 688 mmHg 43%
    21:00 +20°C° 0 mm 1 m/S 688 mmHg 45%
    22:00 +19°C° 0 mm 1 m/S 688 mmHg 46%
    23:00 +19°C° 0 mm 1 m/S 688 mmHg 47%

    Morgen, 22 Oktober, Montag

    Zeit Temperatur Niederschläge Wind Luftdruck Luftfeuchtigkeit
    00:00 +18°C° 0 mm 1 m/S 688 mmHg 48%
    01:00 +18°C° 0 mm 1 m/S 688 mmHg 50%
    02:00 +18°C° 0 mm 1 m/S 688 mmHg 51%
    03:00 +16°C° 0 mm 1 m/S 688 mmHg 53%
    04:00 +16°C° 0 mm 1 m/S 688 mmHg 54%
    05:00 +16°C° 0 mm 1 m/S 688 mmHg 56%
    06:00 +16°C° 0 mm 1 m/S 688 mmHg 57%
    07:00 +18°C° 0 mm 1 m/S 688 mmHg 53%
    08:00 +20°C° 0 mm 1 m/S 689 mmHg 48%
    09:00 +21°C° 0 mm 1 m/S 689 mmHg 43%
    10:00 +22°C° 0 mm 1 m/S 689 mmHg 41%
    11:00 +23°C° 0 mm 1 m/S 689 mmHg 39%
    12:00 +24°C° 0 mm 1 m/S 689 mmHg 37%
    13:00 +24°C° 0 mm 1 m/S 689 mmHg 36%
    14:00 +24°C° 0 mm 2 m/S 688 mmHg 35%
    15:00 +25°C° 0 mm 2 m/S 688 mmHg 35%
    16:00 +24°C° 0 mm 2 m/S 688 mmHg 37%
    17:00 +22°C° 0 mm 1 m/S 688 mmHg 40%
    18:00 +21°C° 0 mm 1 m/S 688 mmHg 43%
    19:00 +21°C° 0 mm 1 m/S 688 mmHg 45%
    20:00 +20°C° 0 mm 1 m/S 689 mmHg 46%
    21:00 +20°C° 0 mm 1 m/S 689 mmHg 48%
    22:00 +19°C° 0 mm 1 m/S 689 mmHg 48%
    23:00 +19°C° 0 mm 1 m/S 689 mmHg 49%

    übermorgen, 23 Oktober, Dienstag

    Zeit Temperatur Niederschläge Wind Luftdruck Luftfeuchtigkeit
    00:00 +18°C° 0 mm 1 m/S 689 mmHg 50%
    01:00 +18°C° 0 mm 1 m/S 688 mmHg 52%
    02:00 +16°C° 0 mm 1 m/S 688 mmHg 53%
    03:00 +16°C° 0 mm 1 m/S 688 mmHg 54%
    04:00 +16°C° 0 mm 1 m/S 688 mmHg 55%
    05:00 +15°C° 0 mm 1 m/S 688 mmHg 57%
    06:00 +15°C° 0 mm 1 m/S 688 mmHg 58%
    07:00 +18°C° 0 mm 1 m/S 688 mmHg 53%
    08:00 +19°C° 0 mm 1 m/S 689 mmHg 48%
    09:00 +21°C° 0 mm 1 m/S 689 mmHg 43%
    10:00 +22°C° 0 mm 1 m/S 689 mmHg 41%
    11:00 +23°C° 0 mm 1 m/S 689 mmHg 39%
    12:00 +24°C° 0 mm 2 m/S 688 mmHg 37%
    13:00 +24°C° 0 mm 2 m/S 688 mmHg 35%
    14:00 +24°C° 0 mm 2 m/S 688 mmHg 34%
    15:00 +25°C° 0 mm 3 m/S 687 mmHg 32%
    16:00 +24°C° 0 mm 2 m/S 687 mmHg 35%
    17:00 +23°C° 0 mm 2 m/S 687 mmHg 38%
    18:00 +20°C° 0 mm 2 m/S 687 mmHg 41%
    19:00 +21°C° 0 mm 1 m/S 687 mmHg 43%
    20:00 +20°C° 0 mm 1 m/S 687 mmHg 44%
    21:00 +20°C° 0 mm 1 m/S 687 mmHg 46%
    22:00 +19°C° 0 mm 1 m/S 687 mmHg 46%
    23:00 +19°C° 0 mm 1 m/S 687 mmHg 47%

    24 Oktober, Mittwoch

    Zeit Temperatur Niederschläge Wind Luftdruck Luftfeuchtigkeit
    00:00 +19°C° 0 mm 1 m/S 687 mmHg 48%
    01:00 +18°C° 0 mm 1 m/S 687 mmHg 49%
    02:00 +18°C° 0 mm 1 m/S 687 mmHg 50%
    03:00 +18°C° 0 mm 1 m/S 686 mmHg 51%
    04:00 +16°C° 0 mm 1 m/S 686 mmHg 53%
    05:00 +16°C° 0 mm 1 m/S 686 mmHg 55%
    06:00 +16°C° 0 mm 1 m/S 686 mmHg 57%
    07:00 +18°C° 0 mm 1 m/S 686 mmHg 54%
    08:00 +18°C° 0 mm 2 m/S 687 mmHg 50%
    09:00 +19°C° 0 mm 2 m/S 687 mmHg 46%
    10:00 +20°C° 0 mm 2 m/S 687 mmHg 44%
    11:00 +21°C° 0 mm 2 m/S 686 mmHg 41%
    12:00 +22°C° 0 mm 3 m/S 686 mmHg 39%
    13:00 +24°C° 0 mm 3 m/S 685 mmHg 38%
    14:00 +24°C° 0 mm 3 m/S 685 mmHg 37%
    15:00 +23°C° 0 mm 4 m/S 684 mmHg 36%
    16:00 +24°C° 0 mm 3 m/S 684 mmHg 38%
    17:00 +22°C° 0 mm 3 m/S 684 mmHg 41%
    18:00 +21°C° 0 mm 3 m/S 684 mmHg 44%
    19:00 +21°C° 0 mm 3 m/S 684 mmHg 45%
    20:00 +20°C° 0 mm 2 m/S 684 mmHg 45%
    21:00 +20°C° 0 mm 2 m/S 684 mmHg 46%
    22:00 +19°C° 0 mm 2 m/S 684 mmHg 48%
    23:00 +19°C° 0 mm 3 m/S 684 mmHg 51%

    25 Oktober, Donnerstag

    Zeit Temperatur Niederschläge Wind Luftdruck Luftfeuchtigkeit
    00:00 +18°C° 0 mm 3 m/S 683 mmHg 53%
    01:00 +18°C° 0 mm 3 m/S 683 mmHg 56%
    02:00 +17°C° 0 mm 2 m/S 683 mmHg 59%
    03:00 +17°C° 0 mm 2 m/S 682 mmHg 62%
    04:00 +16°C° 0 mm 2 m/S 682 mmHg 63%
    05:00 +16°C° 0 mm 2 m/S 682 mmHg 65%
    06:00 +16°C° 0 mm 3 m/S 682 mmHg 66%
    07:00 +17°C° 0 mm 3 m/S 682 mmHg 61%
    08:00 +19°C° 0 mm 4 m/S 682 mmHg 56%
    09:00 +20°C° 0 mm 4 m/S 682 mmHg 50%
    10:00 +21°C° 0 mm 5 m/S 681 mmHg 47%
    11:00 +22°C° 0 mm 6 m/S 681 mmHg 43%
    12:00 +24°C° 0 mm 6 m/S 681 mmHg 39%
    13:00 +23°C° 0.6 mm 5 m/S 680 mmHg 43%
    14:00 +22°C° 0.6 mm 5 m/S 679 mmHg 46%
    15:00 +22°C° 0.6 mm 4 m/S 679 mmHg 50%
    16:00 +21°C° 0.4 mm 4 m/S 679 mmHg 51%
    17:00 +20°C° 0.4 mm 4 m/S 679 mmHg 52%
    18:00 +20°C° 0.4 mm 4 m/S 679 mmHg 54%
    19:00 +19°C° 0.1 mm 4 m/S 679 mmHg 55%
    20:00 +19°C° 0.1 mm 3 m/S 679 mmHg 57%
    21:00 +18°C° 0.1 mm 3 m/S 679 mmHg 58%
    22:00 +18°C° 0.1 mm 3 m/S 679 mmHg 59%
    23:00 +18°C° 0.1 mm 3 m/S 679 mmHg 59%

    26 Oktober, Freitag

    Zeit Temperatur Niederschläge Wind Luftdruck Luftfeuchtigkeit
    00:00 +18°C° 0.1 mm 3 m/S 679 mmHg 60%
    01:00 +18°C° 0 mm 3 m/S 679 mmHg 62%
    02:00 +17°C° 0 mm 3 m/S 679 mmHg 63%
    03:00 +17°C° 0 mm 3 m/S 679 mmHg 65%
    04:00 +16°C° 0.1 mm 3 m/S 679 mmHg 66%
    05:00 +16°C° 0.1 mm 3 m/S 679 mmHg 68%
    06:00 +16°C° 0.1 mm 3 m/S 679 mmHg 69%
    07:00 +17°C° 0 mm 3 m/S 679 mmHg 63%
    08:00 +19°C° 0 mm 4 m/S 680 mmHg 56%
    09:00 +20°C° 0 mm 4 m/S 680 mmHg 50%
    10:00 +22°C° 0 mm 5 m/S 680 mmHg 45%
    11:00 +23°C° 0 mm 6 m/S 680 mmHg 39%
    12:00 +24°C° 0 mm 7 m/S 680 mmHg 34%
    13:00 +23°C° 0.2 mm 6 m/S 680 mmHg 35%
    14:00 +23°C° 0.2 mm 6 m/S 680 mmHg 36%
    15:00 +22°C° 0.2 mm 5 m/S 680 mmHg 37%
    16:00 +21°C° 0.4 mm 6 m/S 680 mmHg 43%
    17:00 +19°C° 0.4 mm 6 m/S 681 mmHg 50%
    18:00 +16°C° 0.4 mm 6 m/S 681 mmHg 57%
    19:00 +14°C° 1.7 mm 6 m/S 682 mmHg 60%
    20:00 +13°C° 1.7 mm 5 m/S 682 mmHg 63%
    21:00 +10°C° 1.7 mm 5 m/S 683 mmHg 67%
    22:00 +11°C° 0.5 mm 4 m/S 684 mmHg 64%
    23:00 +10°C° 0.5 mm 4 m/S 685 mmHg 61%
    Mehr zeigen